Location: ??????
(55.7522°N, 37.6156°E)
Time: 17:13:44
(UTC+00:00)

ATLAS 2AS CENTAUR R/B - Pass Details

Date: 14 June 2025
Orbit: 1040 x 1170 km, 63.7° (Epoch: 12 July)

Event Time Altitude Azimuth Distance (km) Brightness Sun altitude
Exits shadow 21:37:44 14° 187° (S) 2,722 4.2 -10.9°
Maximum altitude 21:43:26 41° 123° (ESE) 1,542 3.3 -10.9°
Drops below altitude 10° 21:49:49 10° 56° (NE) 2,920 5.6 -10.8°
Sets 21:52:34 0° 49° (NE) 3,862 6.4 -10.8°
